TimeEST,TemperatureF,Dew PointF,Humidity,Sea Level PressureIn,VisibilityMPH,Wind Direction,Wind SpeedMPH,Gust SpeedMPH,PrecipitationIn,Events,Conditions,WindDirDegrees,DateUTC
12:53 AM,51.1,44.1,77,30.15,10.0,SW,5.8,-,N/A,,Overcast,230,2013-01-01 05:53:00
1:53 AM,51.1,44.1,77,30.13,10.0,WSW,6.9,-,N/A,,Overcast,240,2013-01-01 06:53:00
2:53 AM,53.1,44.1,71,30.11,10.0,SW,10.4,-,N/A,,Overcast,230,2013-01-01 07:53:00
3:53 AM,52.0,44.1,74,30.10,10.0,WSW,6.9,-,N/A,,Overcast,240,2013-01-01 08:53:00
4:53 AM,52.0,44.1,74,30.09,10.0,SW,5.8,-,N/A,,Overcast,220,2013-01-01 09:53:00
5:53 AM,54.0,45.0,72,30.10,10.0,WSW,9.2,-,N/A,,Overcast,250,2013-01-01 10:53:00
6:53 AM,54.0,45.0,72,30.10,10.0,WSW,8.1,-,N/A,,Overcast,250,2013-01-01 11:53:00
7:53 AM,53.1,45.0,74,30.13,10.0,West,6.9,-,N/A,,Overcast,260,2013-01-01 12:53:00
8:53 AM,54.0,45.0,72,30.14,10.0,SW,5.8,-,N/A,,Overcast,230,2013-01-01 13:53:00
9:53 AM,55.0,46.0,72,30.15,10.0,West,5.8,-,N/A,,Mostly Cloudy,260,2013-01-01 14:53:00
10:53 AM,55.9,46.0,69,30.14,10.0,West,8.1,-,N/A,,Overcast,260,2013-01-01 15:53:00
11:53 AM,55.0,46.9,74,30.11,10.0,WSW,5.8,-,N/A,,Overcast,250,2013-01-01 16:53:00
12:53 PM,54.0,48.0,80,30.07,10.0,West,5.8,-,0.01,Rain,Light Rain,280,2013-01-01 17:53:00
1:53 PM,54.0,48.9,83,30.05,8.0,SW,6.9,-,0.00,Rain,Light Rain,230,2013-01-01 18:53:00
2:53 PM,54.0,50.0,86,30.04,10.0,West,5.8,-,0.01,,Overcast,260,2013-01-01 19:53:00
3:53 PM,55.0,51.1,86,30.03,10.0,WSW,8.1,-,0.00,,Overcast,240,2013-01-01 20:53:00
4:53 PM,55.0,51.1,86,30.01,10.0,SSW,8.1,-,N/A,,Overcast,210,2013-01-01 21:53:00
5:53 PM,55.0,51.1,86,30.01,10.0,SW,6.9,-,N/A,,Overcast,230,2013-01-01 22:53:00
6:53 PM,55.0,51.1,86,30.02,10.0,WSW,3.5,-,N/A,,Overcast,250,2013-01-01 23:53:00
7:53 PM,54.0,51.1,90,30.02,10.0,NW,3.5,-,N/A,,Overcast,320,2013-01-02 00:53:00
8:53 PM,55.0,51.1,86,30.01,10.0,North,4.6,-,N/A,,Overcast,10,2013-01-02 01:53:00
9:53 PM,54.0,51.1,90,29.98,10.0,Calm,Calm,-,N/A,,Overcast,0,2013-01-02 02:53:00
10:53 PM,52.0,51.1,97,29.98,9.0,Calm,Calm,-,N/A,,Mostly Cloudy,0,2013-01-02 03:53:00
11:53 PM,53.1,51.1,93,29.96,7.0,Calm,Calm,-,N/A,,Overcast,0,2013-01-02 04:53:00